Total_Precipitation_Accumulation
0.24 0.17 0.13 0.10 0.08 0.06 0.05 0.05 0.04 0.03 0.02 0.02 0.03 0.04 0.05 0.05 0.05 0.06 0.11 0.21 0.25 0.25 0.33 0.33 0.35 0.40 0.44 0.47 0.50 0.53 0.67 0.80 0.77 0.83 0.73 0.54 0.36 0.23 0.14 0.08 0.04 0.01 0.00
0.20 0.14 0.08 0.06 0.04 0.03 0.02 0.01 0.00 0.00 0.00 0.01 0.01 0.02 0.02 0.02 0.02 0.02 0.03 0.06 0.13 0.19 0.28 0.36 0.42 0.49 0.50 0.45 0.47 0.53 0.68 0.85 0.93 1.08 1.17 0.91 0.62 0.37 0.27 0.15 0.07 0.03 0.01
0.13 0.09 0.06 0.04 0.02 0.01 0.00 0.00 0.00 0.00 0.00 0.00 0.00 0.00 0.00 0.00 0.01 0.01 0.02 0.03 0.08 0.13 0.24 0.36 0.40 0.41 0.44 0.44 0.49 0.54 0.61 0.72 0.82 0.96 1.14 0.97 0.76 0.51 0.48 0.34 0.18 0.14 0.07
0.08 0.06 0.05 0.04 0.03 0.02 0.01 0.00 0.00 0.00 0.00 0.00 0.00 0.00 0.00 0.00 0.01 0.02 0.02 0.04 0.06 0.10 0.16 0.23 0.27 0.28 0.33 0.36 0.39 0.47 0.53 0.56 0.61 0.70 0.85 0.93 0.95 0.86 0.77 0.62 0.48 0.35 0.23
0.10 0.10 0.09 0.07 0.05 0.03 0.01 0.01 0.01 0.00 0.00 0.00 0.00 0.00 0.00 0.00 0.00 0.01 0.02 0.03 0.05 0.07 0.09 0.11 0.10 0.12 0.15 0.19 0.24 0.33 0.41 0.48 0.54 0.62 0.76 0.90 0.99 1.00 0.89 0.84 0.69 0.58 0.41
0.12 0.12 0.11 0.09 0.06 0.04 0.04 0.03 0.02 0.01 0.01 0.00 0.00 0.00 0.00 0.00 0.00 0.01 0.01 0.01 0.02 0.03 0.05 0.05 0.04 0.04 0.05 0.08 0.10 0.13 0.19 0.29 0.44 0.60 0.74 0.90 0.95 0.92 1.01 0.95 0.85 0.77 0.64
0.11 0.10 0.10 0.10 0.09 0.08 0.06 0.06 0.06 0.04 0.03 0.02 0.01 0.01 0.01 0.00 0.00 0.00 0.00 0.00 0.00 0.00 0.01 0.02 0.01 0.00 0.01 0.03 0.06 0.11 0.11 0.11 0.16 0.38 0.54 0.61 0.62 0.59 0.77 0.95 0.87 0.79 0.75
0.15 0.17 0.17 0.18 0.16 0.14 0.14 0.11 0.09 0.06 0.04 0.04 0.03 0.03 0.02 0.00 0.00 0.00 0.00 0.00 0.00 0.00 0.00 0.00 0.00 0.00 0.00 0.01 0.03 0.08 0.05 0.03 0.06 0.14 0.18 0.19 0.24 0.33 0.45 0.66 0.79 0.71 0.65
0.15 0.19 0.24 0.25 0.21 0.18 0.18 0.14 0.12 0.10 0.07 0.04 0.04 0.06 0.05 0.01 0.00 0.00 0.00 0.00 0.00 0.00 0.00 0.00 0.00 0.00 0.00 0.00 0.04 0.07 0.03 0.01 0.01 0.02 0.03 0.06 0.10 0.13 0.19 0.30 0.44 0.61 0.74
0.22 0.25 0.28 0.26 0.22 0.19 0.18 0.15 0.12 0.12 0.10 0.06 0.06 0.05 0.06 0.03 0.00 0.00 0.00 0.00 0.00 0.00 0.00 0.00 0.00 0.00 0.00 0.00 0.02 0.04 0.03 0.02 0.01 0.01 0.01 0.01 0.02 0.03 0.06 0.10 0.18 0.32 0.50
0.23 0.25 0.32 0.31 0.21 0.16 0.16 0.15 0.13 0.12 0.12 0.09 0.07 0.06 0.06 0.03 0.01 0.00 0.00 0.00 0.00 0.00 0.00 0.00 0.00 0.00 0.00 0.00 0.00 0.00 0.00 0.00 0.00 0.01 0.01 0.02 0.01 0.01 0.01 0.01 0.03 0.10 0.19
0.23 0.23 0.28 0.29 0.21 0.17 0.18 0.17 0.14 0.14 0.15 0.12 0.11 0.10 0.09 0.07 0.03 0.01 0.00 0.00 0.00 0.01 0.01 0.00 0.00 0.00 0.00 0.00 0.00 0.00 0.00 0.00 0.00 0.00 0.00 0.01 0.01 0.01 0.01 0.00 0.01 0.02 0.04
0.23 0.25 0.25 0.26 0.26 0.21 0.18 0.18 0.16 0.14 0.16 0.15 0.15 0.14 0.14 0.13 0.10 0.04 0.01 0.00 0.00 0.01 0.01 0.00 0.00 0.00 0.00 0.00 0.00 0.00 0.00 0.00 0.00 0.00 0.01 0.00 0.00 0.00 0.00 0.00 0.00 0.01 0.01
0.24 0.27 0.30 0.29 0.30 0.27 0.23 0.22 0.22 0.20 0.19 0.19 0.19 0.16 0.16 0.17 0.14 0.12 0.09 0.04 0.02 0.01 0.01 0.01 0.00 0.00 0.00 0.00 0.00 0.00 0.00 0.00 0.00 0.01 0.02 0.02 0.01 0.00 0.00 0.01 0.01 0.01 0.01
0.21 0.29 0.35 0.34 0.33 0.29 0.25 0.22 0.23 0.23 0.21 0.22 0.20 0.17 0.15 0.15 0.14 0.11 0.11 0.08 0.05 0.03 0.03 0.02 0.02 0.02 0.02 0.01 0.01 0.00 0.00 0.01 0.00 0.00 0.01 0.01 0.02 0.01 0.01 0.01 0.01 0.01 0.01
0.21 0.20 0.23 0.24 0.25 0.25 0.22 0.17 0.13 0.11 0.10 0.10 0.11 0.10 0.09 0.07 0.05 0.05 0.06 0.06 0.05 0.05 0.05 0.06 0.06 0.04 0.03 0.03 0.02 0.02 0.02 0.01 0.01 0.01 0.02 0.02 0.02 0.03 0.02 0.02 0.01 0.02 0.02
0.08 0.08 0.09 0.10 0.11 0.12 0.14 0.14 0.11 0.07 0.04 0.03 0.03 0.02 0.02 0.02 0.02 0.02 0.02 0.03 0.04 0.04 0.06 0.09 0.10 0.08 0.06 0.04 0.03 0.02 0.03 0.03 0.03 0.03 0.03 0.04 0.04 0.04 0.04 0.04 0.03 0.04 0.04
0.01 0.01 0.02 0.04 0.03 0.04 0.04 0.05 0.05 0.05 0.03 0.01 0.00 0.00 0.00 0.00 0.00 0.00 0.00 0.01 0.02 0.02 0.04 0.08 0.11 0.11 0.08 0.06 0.04 0.02 0.02 0.02 0.02 0.03 0.04 0.04 0.05 0.05 0.06 0.05 0.04 0.04 0.05
0.00 0.00 0.00 0.00 0.01 0.01 0.01 0.01 0.01 0.01 0.01 0.01 0.00 0.00 0.00 0.00 0.00 0.00 0.00 0.00 0.00 0.01 0.02 0.03 0.05 0.06 0.07 0.07 0.06 0.04 0.04 0.03 0.03 0.03 0.04 0.05 0.06 0.07 0.08 0.09 0.08 0.07 0.06
0.00 0.00 0.00 0.00 0.00 0.00 0.00 0.00 0.00 0.00 0.00 0.00 0.00 0.00 0.00 0.00 0.00 0.00 0.00 0.00 0.00 0.00 0.01 0.01 0.02 0.02 0.03 0.04 0.05 0.04 0.04 0.04 0.04 0.04 0.04 0.05 0.06 0.07 0.09 0.10 0.11 0.10 0.09
0.00 0.00 0.00 0.00 0.00 0.00 0.00 0.00 0.00 0.00 0.00 0.00 0.00 0.00 0.00 0.00 0.00 0.00 0.00 0.00 0.00 0.00 0.00 0.00 0.01 0.01 0.01 0.02 0.02 0.03 0.03 0.03 0.03 0.03 0.03 0.04 0.05 0.05 0.06 0.07 0.09 0.09 0.09
0.00 0.00 0.00 0.00 0.00 0.00 0.00 0.00 0.00 0.00 0.00 0.00 0.00 0.00 0.00 0.00 0.00 0.00 0.00 0.00 0.00 0.00 0.00 0.00 0.00 0.00 0.00 0.00 0.01 0.02 0.02 0.02 0.02 0.03 0.03 0.03 0.04 0.05 0.05 0.06 0.07 0.08 0.08
0.00 0.00 0.00 0.00 0.00 0.00 0.00 0.00 0.00 0.00 0.00 0.00 0.00 0.00 0.00 0.00 0.00 0.00 0.00 0.00 0.00 0.00 0.00 0.00 0.00 0.00 0.00 0.00 0.00 0.00 0.00 0.00 0.00 0.00 0.01 0.01 0.02 0.03 0.04 0.05 0.06 0.07 0.08
0.00 0.00 0.00 0.00 0.00 0.00 0.00 0.00 0.00 0.00 0.00 0.00 0.00 0.00 0.00 0.00 0.00 0.00 0.00 0.00 0.00 0.00 0.00 0.00 0.00 0.00 0.00 0.00 0.00 0.00 0.00 0.00 0.00 0.00 0.00 0.00 0.01 0.02 0.02 0.03 0.04 0.05 0.06
0.00 0.00 0.00 0.00 0.00 0.00 0.00 0.00 0.00 0.00 0.00 0.00 0.00 0.00 0.00 0.00 0.00 0.00 0.00 0.00 0.00 0.00 0.00 0.00 0.00 0.00 0.00 0.00 0.01 0.01 0.00 0.00 0.00 0.00 0.00 0.00 0.01 0.01 0.02 0.03 0.04 0.04 0.05
0.00 0.00 0.00 0.00 0.00 0.00 0.00 0.00 0.00 0.00 0.00 0.00 0.00 0.00 0.01 0.01 0.01 0.00 0.00 0.00 0.00 0.00 0.00 0.00 0.00 0.00 0.01 0.01 0.01 0.00 0.00 0.00 0.00 0.00 0.00 0.01 0.01 0.02 0.02 0.02 0.02 0.02 0.03